Pineville, WV

11:48 AM EDT on August 20, 2017 (GMT -0400)
Pineville

Weather History for KI16 - June, 2013

Change the Weather History Date:

Thursday, June 20, 2013

  Actual Average (KBKW) Record (KBKW)
Temperature  
Mean Temperature 73 °F -  
Max Temperature 87 °F 77 °F 92 °F (1931)
Min Temperature 59 °F 58 °F 40 °F (1959)
Cooling Degree Days 8    
Growing Degree Days 23 (Base 50)    
Moisture  
Dew Point 64 °F    
Average Humidity 82    
Maximum Humidity 100    
Minimum Humidity 36    
Precipitation  
Precipitation 0.00 in - - ()
Sea Level Pressure  
Sea Level Pressure 30.27 in    
Wind  
Wind Speed - (North)    
Max Wind Speed -    
Max Gust Speed -    
Visibility 7 miles    
Events Fog    
Averages and records for this station are not official NWS values.
T = Trace of Precipitation, MM = Missing Value Source: NWS Daily Summary

Daily Weather History Graph

Daily Weather History Graph

Search for Another Location

Airport or City:

Trip Planner

Search our weather history database for the weather conditions in past years. The results will help you decide how hot, cold, wet, or windy it might be!

Date:

Astronomy

Jun. 20, 2013 Rise Set
Actual Time 6:04 AM EDT 8:50 PM EDT
Civil Twilight 5:33 AM EDT 9:22 PM EDT
Nautical Twilight 4:54 AM EDT 10:01 PM EDT
Astronomical Twilight 4:10 AM EDT 10:45 PM EDT
Moon 5:53 PM EDT 3:27 AM EDT
Length of Visible Light 15h 48m
Length of Day
14h 45m
Waxing Gibbous, 89% of the Moon is Illuminated
Jun 20
Waxing Gibbous
Jun 23
Full
Jun 30
Last Quarter
Jul 8
New
Jul 15
First Quarter

Hourly Weather History & Observations

Time (EDT) Temp. Heat Index Dew Point Humidity Pressure Visibility Wind Dir Wind Speed Gust Speed Precip Events Conditions
12:15 AM 62.2 °F - 62.2 °F 100% 30.23 in 4.0 mi North - - N/A   Clear
12:35 AM 62.2 °F - 62.2 °F 100% 30.23 in 4.0 mi North - - N/A   Clear
12:55 AM 61.5 °F - 61.5 °F 100% 30.23 in 4.0 mi North - - N/A   Clear
1:15 AM 61.3 °F - 61.3 °F 100% 30.23 in 4.0 mi North - - N/A   Clear
1:35 AM 61.2 °F - 61.2 °F 100% 30.22 in 4.0 mi North - - N/A   Clear
1:55 AM 60.8 °F - 60.8 °F 100% 30.22 in 4.0 mi North - - N/A   Clear
2:15 AM 60.4 °F - 60.4 °F 100% 30.22 in 4.0 mi North - - N/A   Clear
2:35 AM 60.3 °F - 60.3 °F 100% 30.22 in 4.0 mi North - - N/A   Clear
2:55 AM 59.9 °F - 59.9 °F 100% 30.22 in 3.0 mi North - - N/A   Clear
3:15 AM 60.1 °F - 60.1 °F 100% 30.22 in 4.0 mi North - - N/A   Scattered Clouds
3:35 AM 60.1 °F - 60.1 °F 100% 30.23 in 2.5 mi North - - N/A   Mostly Cloudy
3:55 AM 60.3 °F - 60.3 °F 100% 30.23 in 0.8 mi North - - N/A   Overcast
4:15 AM 60.8 °F - 60.8 °F 100% 30.23 in 2.0 mi North - - N/A   Overcast
4:35 AM 61.0 °F - 61.0 °F 100% 30.23 in 0.8 mi North - - N/A   Overcast
4:55 AM 61.0 °F - 61.0 °F 100% 30.24 in 0.5 mi North - - N/A Fog Fog
5:15 AM 61.0 °F - 61.0 °F 100% 30.24 in 0.5 mi North - - N/A Fog Fog
5:35 AM 61.2 °F - 61.2 °F 100% 30.25 in 0.5 mi North - - N/A Fog Fog
5:55 AM 61.2 °F - 61.2 °F 100% 30.25 in 0.5 mi North - - N/A Fog Fog
6:15 AM 61.0 °F - 61.0 °F 100% 30.25 in 0.5 mi North - - N/A Fog Fog
6:35 AM 61.2 °F - 61.2 °F 100% 30.26 in 0.5 mi North - - N/A Fog Fog
6:55 AM 61.0 °F - 61.0 °F 100% 30.27 in 0.2 mi North - - N/A Fog Fog
7:15 AM 61.5 °F - 61.5 °F 100% 30.27 in 0.5 mi North - - N/A Fog Fog
7:35 AM 61.7 °F - 61.7 °F 100% 30.28 in 0.5 mi North - - N/A Fog Fog
7:55 AM 62.1 °F - 62.1 °F 100% 30.28 in 0.5 mi North - - N/A Fog Fog
8:15 AM 63.3 °F - 63.3 °F 100% 30.29 in 2.5 mi North - - N/A   Overcast
8:35 AM 64.8 °F - 64.8 °F 100% 30.29 in 10.0 mi North - - N/A   Mostly Cloudy
8:55 AM 67.5 °F - 67.1 °F 99% 30.30 in 10.0 mi North - - N/A   Clear
9:15 AM 69.6 °F - 66.6 °F 90% 30.30 in 10.0 mi North - - N/A   Clear
9:35 AM 70.9 °F - 67.1 °F 88% 30.30 in 10.0 mi North - - N/A   Clear
9:55 AM 72.5 °F - 66.9 °F 83% 30.30 in 10.0 mi North - - N/A   Clear
10:15 AM 75.0 °F - 66.6 °F 75% 30.30 in 10.0 mi North - - N/A   Clear
10:35 AM 77.2 °F - 66.6 °F 70% 30.30 in 10.0 mi North - - N/A   Clear
10:55 AM 77.4 °F - 66.4 °F 69% 30.31 in 10.0 mi North - - N/A   Clear
11:15 AM 78.4 °F - 68.0 °F 70% 30.31 in 10.0 mi North - - N/A   Clear
11:35 AM 79.5 °F - 67.8 °F 67% 30.30 in 10.0 mi North - - N/A   Clear
11:55 AM 79.3 °F - 66.9 °F 66% 30.30 in 10.0 mi North - - N/A   Scattered Clouds
12:15 PM 77.7 °F - 68.2 °F 72% 30.30 in 10.0 mi North - - N/A   Clear
12:35 PM 79.9 °F - 65.8 °F 62% 30.30 in 10.0 mi North - - N/A   Scattered Clouds
12:55 PM 81.1 °F 83.4 °F 66.7 °F 61% 30.29 in 10.0 mi North - - N/A   Scattered Clouds
1:15 PM 83.3 °F 84.4 °F 63.7 °F 51% 30.29 in 10.0 mi North - - N/A   Scattered Clouds
1:35 PM 83.5 °F 84.5 °F 63.3 °F 50% 30.29 in 10.0 mi North - - N/A   Clear
2:15 PM 84.7 °F 85.0 °F 61.0 °F 45% 30.27 in 10.0 mi North - - N/A   Clear
2:35 PM 84.7 °F 85.4 °F 62.2 °F 47% 30.27 in 10.0 mi North - - N/A   Clear
2:55 PM 84.7 °F 84.4 °F 59.0 °F 42% 30.27 in 10.0 mi North - - N/A   Clear
3:15 PM 86.2 °F 85.2 °F 58.1 °F 38% 30.26 in 10.0 mi North - - N/A   Clear
3:35 PM 87.1 °F 85.9 °F 56.8 °F 36% 30.26 in 10.0 mi North - - N/A   Clear
3:55 PM 82.6 °F 83.6 °F 62.6 °F 51% 30.26 in 10.0 mi North - - N/A   Clear
4:15 PM 83.7 °F 84.9 °F 63.7 °F 51% 30.26 in 10.0 mi North - - N/A   Clear
4:35 PM 86.4 °F 85.6 °F 59.0 °F 39% 30.25 in 10.0 mi North - - N/A   Clear
4:55 PM 86.2 °F 86.8 °F 62.4 °F 45% 30.25 in 10.0 mi North - - N/A   Clear
5:15 PM 84.0 °F 86.5 °F 66.9 °F 56% 30.25 in 10.0 mi North - - N/A   Clear
5:35 PM 81.5 °F 84.6 °F 68.5 °F 65% 30.25 in 10.0 mi North - - N/A   Clear
5:55 PM 79.2 °F - 70.3 °F 74% 30.25 in 10.0 mi North - - N/A   Scattered Clouds
6:15 PM 79.2 °F - 69.1 °F 71% 30.25 in 10.0 mi North - - N/A   Scattered Clouds
6:35 PM 79.9 °F - 69.4 °F 70% 30.25 in 10.0 mi North - - N/A   Clear
6:55 PM 79.2 °F - 69.8 °F 73% 30.26 in 10.0 mi North - - N/A   Clear
7:15 PM 77.4 °F - 68.2 °F 73% 30.26 in 10.0 mi North - - N/A   Clear
7:35 PM 75.6 °F - 68.7 °F 79% 30.26 in 10.0 mi North - - N/A   Clear
7:55 PM 74.5 °F - 69.3 °F 84% 30.26 in 10.0 mi North - - N/A   Clear
8:15 PM 73.2 °F - 69.1 °F 87% 30.26 in 10.0 mi North - - N/A   Clear
8:35 PM 72.1 °F - 68.5 °F 88% 30.27 in 10.0 mi North - - N/A   Clear
8:55 PM 70.9 °F - 68.0 °F 91% 30.28 in 10.0 mi North - - N/A   Scattered Clouds
9:15 PM 70.2 °F - 67.8 °F 92% 30.28 in 10.0 mi North - - N/A   Scattered Clouds
9:35 PM 70.3 °F - 67.1 °F 89% 30.28 in 10.0 mi North - - N/A   Scattered Clouds
9:55 PM 69.4 °F - 67.1 °F 92% 30.29 in 10.0 mi North - - N/A   Scattered Clouds
10:15 PM 69.1 °F - 66.9 °F 93% 30.30 in 10.0 mi North - - N/A   Clear
10:35 PM 68.5 °F - 66.6 °F 93% 30.30 in 10.0 mi North - - N/A   Clear
10:55 PM 68.0 °F - 66.6 °F 95% 30.30 in 10.0 mi North - - N/A   Scattered Clouds
11:15 PM 67.5 °F - 66.2 °F 96% 30.30 in 10.0 mi North - - N/A   Scattered Clouds
11:35 PM 66.9 °F - 66.0 °F 97% 30.30 in 10.0 mi North - - N/A   Clear
11:55 PM 66.2 °F - 65.3 °F 97% 30.30 in 10.0 mi North - - N/A   Clear